Year,Month,Day,Hour,Minute,Value (Times are PST for temperature in C)
2009,07,29,00,00,22.50
2009,07,29,00,01,22.50
2009,07,29,00,02,22.50
2009,07,29,00,03,22.50
2009,07,29,00,04,22.40
2009,07,29,00,05,22.40
2009,07,29,00,06,22.40
2009,07,29,00,07,22.40
2009,07,29,00,08,22.50
2009,07,29,00,09,22.50
2009,07,29,00,10,22.60
2009,07,29,00,11,22.60
2009,07,29,00,12,22.70
2009,07,29,00,13,22.70
2009,07,29,00,14,22.80
2009,07,29,00,15,22.90
2009,07,29,00,16,22.90
2009,07,29,00,17,23.00
2009,07,29,00,18,23.00
2009,07,29,00,19,23.10
2009,07,29,00,20,23.10
2009,07,29,00,21,23.10
2009,07,29,00,22,23.10
2009,07,29,00,23,23.10
2009,07,29,00,24,23.10
2009,07,29,00,25,23.10
2009,07,29,00,26,23.10
2009,07,29,00,27,23.10
2009,07,29,00,28,23.10
2009,07,29,00,29,23.10
2009,07,29,00,30,23.10
2009,07,29,00,31,23.10
2009,07,29,00,32,23.10
2009,07,29,00,33,23.10
2009,07,29,00,34,23.00
2009,07,29,00,35,23.00
2009,07,29,00,36,22.90
2009,07,29,00,37,22.80
2009,07,29,00,38,22.80
2009,07,29,00,39,22.80
2009,07,29,00,40,22.70
2009,07,29,00,41,22.70
2009,07,29,00,42,22.60
2009,07,29,00,43,22.60
2009,07,29,00,44,22.50
2009,07,29,00,45,22.50
2009,07,29,00,46,22.40
2009,07,29,00,47,22.40
2009,07,29,00,48,22.40
2009,07,29,00,49,22.40
2009,07,29,00,50,22.40
2009,07,29,00,51,22.40
2009,07,29,00,52,22.40
2009,07,29,00,53,22.40
2009,07,29,00,54,22.40
2009,07,29,00,55,22.40
2009,07,29,00,56,22.50
2009,07,29,00,57,22.50
2009,07,29,00,58,22.50
2009,07,29,00,59,22.50
2009,07,29,01,00,22.50
2009,07,29,01,01,22.50
2009,07,29,01,02,22.60
2009,07,29,01,03,22.60
2009,07,29,01,04,22.60
2009,07,29,01,05,22.60
2009,07,29,01,06,22.60
2009,07,29,01,07,22.60
2009,07,29,01,08,22.50
2009,07,29,01,09,22.50
2009,07,29,01,10,22.40
2009,07,29,01,11,22.40
2009,07,29,01,12,22.30
2009,07,29,01,13,22.20
2009,07,29,01,14,22.20
2009,07,29,01,15,22.10
2009,07,29,01,16,22.10
2009,07,29,01,17,22.10
2009,07,29,01,18,22.00
2009,07,29,01,19,22.00
2009,07,29,01,20,22.00
2009,07,29,01,21,22.10
2009,07,29,01,22,22.10
2009,07,29,01,23,22.20
2009,07,29,01,24,22.20
2009,07,29,01,25,22.20
2009,07,29,01,26,22.30
2009,07,29,01,27,22.30
2009,07,29,01,28,22.40
2009,07,29,01,29,22.40
2009,07,29,01,30,22.50
2009,07,29,01,31,22.50
2009,07,29,01,32,22.60
2009,07,29,01,33,22.60
2009,07,29,01,34,22.60
2009,07,29,01,35,22.60
2009,07,29,01,36,22.60
2009,07,29,01,37,22.60
2009,07,29,01,38,22.70
2009,07,29,01,39,22.60
2009,07,29,01,40,22.60
2009,07,29,01,41,22.60
2009,07,29,01,42,22.60
2009,07,29,01,43,22.60
2009,07,29,01,44,22.60
2009,07,29,01,45,22.60
2009,07,29,01,46,22.60
2009,07,29,01,47,22.60
2009,07,29,01,48,22.50
2009,07,29,01,49,22.50
2009,07,29,01,50,22.50
2009,07,29,01,51,22.50
2009,07,29,01,52,22.50
2009,07,29,01,53,22.50
2009,07,29,01,54,22.40
2009,07,29,01,55,22.40
2009,07,29,01,56,22.40
2009,07,29,01,57,22.40
2009,07,29,01,58,22.30
2009,07,29,01,59,22.30
2009,07,29,02,00,22.30
2009,07,29,02,01,22.20
2009,07,29,02,02,22.10
2009,07,29,02,03,22.00
2009,07,29,02,04,21.90
2009,07,29,02,05,21.80
2009,07,29,02,06,21.60
2009,07,29,02,07,21.40
2009,07,29,02,08,21.20
2009,07,29,02,09,21.00
2009,07,29,02,10,20.90
2009,07,29,02,11,20.70
2009,07,29,02,12,20.70
2009,07,29,02,13,20.70
2009,07,29,02,14,20.70
2009,07,29,02,15,20.70
2009,07,29,02,16,20.70
2009,07,29,02,17,20.70
2009,07,29,02,18,20.80
2009,07,29,02,19,20.90
2009,07,29,02,20,21.10
2009,07,29,02,21,21.10
2009,07,29,02,22,21.20
2009,07,29,02,23,21.20
2009,07,29,02,24,21.30
2009,07,29,02,25,21.30
2009,07,29,02,26,21.30
2009,07,29,02,27,21.40
2009,07,29,02,28,21.40
2009,07,29,02,29,21.40
2009,07,29,02,30,21.40
2009,07,29,02,31,21.40
2009,07,29,02,32,21.40
2009,07,29,02,33,21.40
2009,07,29,02,34,21.40
2009,07,29,02,35,21.50
2009,07,29,02,36,21.50
2009,07,29,02,37,21.60
2009,07,29,02,38,21.60
2009,07,29,02,39,21.60
2009,07,29,02,40,21.60
2009,07,29,02,41,21.60
2009,07,29,02,42,21.60
2009,07,29,02,43,21.60
2009,07,29,02,44,21.60
2009,07,29,02,45,21.50
2009,07,29,02,46,21.50
2009,07,29,02,47,21.40
2009,07,29,02,48,21.40
2009,07,29,02,49,21.30
2009,07,29,02,50,21.20
2009,07,29,02,51,21.20
2009,07,29,02,52,21.10
2009,07,29,02,53,21.10
2009,07,29,02,54,21.00
2009,07,29,02,55,21.00
2009,07,29,02,56,20.90
2009,07,29,02,57,20.80
2009,07,29,02,58,20.80
2009,07,29,02,59,20.70
2009,07,29,03,00,20.60
2009,07,29,03,01,20.50
2009,07,29,03,02,20.40
2009,07,29,03,03,20.30
2009,07,29,03,04,20.20
2009,07,29,03,05,20.10
2009,07,29,03,06,20.00
2009,07,29,03,07,20.00
2009,07,29,03,08,19.90
2009,07,29,03,09,19.90
2009,07,29,03,10,19.90
2009,07,29,03,11,19.90
2009,07,29,03,12,19.90
2009,07,29,03,13,19.90
2009,07,29,03,14,19.80
2009,07,29,03,15,19.80
2009,07,29,03,16,19.80
2009,07,29,03,17,19.80
2009,07,29,03,18,19.80
2009,07,29,03,19,19.70
2009,07,29,03,20,19.70
2009,07,29,03,21,19.70
2009,07,29,03,22,19.70
2009,07,29,03,23,19.70
2009,07,29,03,24,19.70
2009,07,29,03,25,19.70
2009,07,29,03,26,19.70
2009,07,29,03,27,19.80
2009,07,29,03,28,19.80
2009,07,29,03,29,19.90
2009,07,29,03,30,19.90
2009,07,29,03,31,19.90
2009,07,29,03,32,19.90
2009,07,29,03,33,19.90
2009,07,29,03,34,19.90
2009,07,29,03,35,19.90
2009,07,29,03,36,19.90
2009,07,29,03,37,19.80
2009,07,29,03,38,19.80
2009,07,29,03,39,19.80
2009,07,29,03,40,19.80
2009,07,29,03,41,19.80
2009,07,29,03,42,19.90
2009,07,29,03,43,19.80
2009,07,29,03,44,19.80
2009,07,29,03,45,19.80
2009,07,29,03,46,19.80
2009,07,29,03,47,19.80
2009,07,29,03,48,19.80
2009,07,29,03,49,19.80
2009,07,29,03,50,19.80
2009,07,29,03,51,19.80
2009,07,29,03,52,19.80
2009,07,29,03,53,19.80
2009,07,29,03,54,19.70
2009,07,29,03,55,19.70
2009,07,29,03,56,19.70
2009,07,29,03,57,19.70
2009,07,29,03,58,19.60
2009,07,29,03,59,19.60
2009,07,29,04,00,19.60
2009,07,29,04,01,19.60
2009,07,29,04,02,19.50
2009,07,29,04,03,19.50
2009,07,29,04,04,19.40
2009,07,29,04,05,19.40
2009,07,29,04,06,19.40
2009,07,29,04,07,19.40
2009,07,29,04,08,19.30
2009,07,29,04,09,19.30
2009,07,29,04,10,19.30
2009,07,29,04,11,19.30
2009,07,29,04,12,19.20
2009,07,29,04,13,19.20
2009,07,29,04,14,19.20
2009,07,29,04,15,19.20
2009,07,29,04,16,19.10
2009,07,29,04,17,19.10
2009,07,29,04,18,19.10
2009,07,29,04,19,19.10
2009,07,29,04,20,19.10
2009,07,29,04,21,19.10
2009,07,29,04,22,19.00
2009,07,29,04,23,19.00
2009,07,29,04,24,19.00
2009,07,29,04,25,19.00
2009,07,29,04,26,19.00
2009,07,29,04,27,18.90
2009,07,29,04,28,18.90
2009,07,29,04,29,18.90
2009,07,29,04,30,18.90
2009,07,29,04,31,18.90
2009,07,29,04,32,18.90
2009,07,29,04,33,18.90
2009,07,29,04,34,18.90
2009,07,29,04,35,18.90
2009,07,29,04,36,18.90
2009,07,29,04,37,18.90
2009,07,29,04,38,18.90
2009,07,29,04,39,18.90
2009,07,29,04,40,18.90
2009,07,29,04,41,18.90
2009,07,29,04,42,18.90
2009,07,29,04,43,18.90
2009,07,29,04,44,19.00
2009,07,29,04,45,19.00
2009,07,29,04,46,19.10
2009,07,29,04,47,19.10
2009,07,29,04,48,19.10
2009,07,29,04,49,19.10
2009,07,29,04,50,19.20
2009,07,29,04,51,19.20
2009,07,29,04,52,19.20
2009,07,29,04,53,19.20
2009,07,29,04,54,19.30
2009,07,29,04,55,19.30
2009,07,29,04,56,19.30
2009,07,29,04,57,19.40
2009,07,29,04,58,19.40
2009,07,29,04,59,19.40
2009,07,29,05,00,19.40
2009,07,29,05,01,19.40
2009,07,29,05,02,19.40
2009,07,29,05,03,19.40
2009,07,29,05,04,19.40
2009,07,29,05,05,19.40
2009,07,29,05,06,19.40
2009,07,29,05,07,19.30
2009,07,29,05,08,19.30
2009,07,29,05,09,19.30
2009,07,29,05,10,19.30
2009,07,29,05,11,19.30
2009,07,29,05,12,19.30
2009,07,29,05,13,19.30
2009,07,29,05,14,19.30
2009,07,29,05,15,19.40
2009,07,29,05,16,19.30
2009,07,29,05,17,19.30
2009,07,29,05,18,19.30
2009,07,29,05,19,19.30
2009,07,29,05,20,19.30
2009,07,29,05,21,19.30
2009,07,29,05,22,19.20
2009,07,29,05,23,19.20
2009,07,29,05,24,19.20
2009,07,29,05,25,19.20
2009,07,29,05,26,19.20
2009,07,29,05,27,19.10
2009,07,29,05,28,19.10
2009,07,29,05,29,19.10
2009,07,29,05,30,19.10
2009,07,29,05,31,19.10
2009,07,29,05,32,19.10
2009,07,29,05,33,19.10
2009,07,29,05,34,19.10
2009,07,29,05,35,19.10
2009,07,29,05,36,19.00
2009,07,29,05,37,19.00
2009,07,29,05,38,19.00
2009,07,29,05,39,18.90
2009,07,29,05,40,18.90
2009,07,29,05,41,18.90
2009,07,29,05,42,18.90
2009,07,29,05,43,18.90
2009,07,29,05,44,18.90
2009,07,29,05,45,18.90
2009,07,29,05,46,18.80
2009,07,29,05,47,18.80
2009,07,29,05,48,18.80
2009,07,29,05,49,18.80
2009,07,29,05,50,18.80
2009,07,29,05,51,18.80
2009,07,29,05,52,18.80
2009,07,29,05,53,18.80
2009,07,29,05,54,18.80
2009,07,29,05,55,18.70
2009,07,29,05,56,18.70
2009,07,29,05,57,18.70
2009,07,29,05,58,18.70
2009,07,29,05,59,18.70
2009,07,29,06,00,18.70
2009,07,29,06,01,18.70
2009,07,29,06,02,18.70
2009,07,29,06,03,18.70
2009,07,29,06,04,18.80
2009,07,29,06,05,18.80
2009,07,29,06,06,18.80
2009,07,29,06,07,18.80
2009,07,29,06,08,18.90
2009,07,29,06,09,19.00
2009,07,29,06,10,19.10
2009,07,29,06,11,19.10
2009,07,29,06,12,19.20
2009,07,29,06,13,19.20
2009,07,29,06,14,19.20
2009,07,29,06,15,19.20
2009,07,29,06,16,19.20
2009,07,29,06,17,19.20
2009,07,29,06,18,19.30
2009,07,29,06,19,19.30
2009,07,29,06,20,19.30
2009,07,29,06,21,19.40
2009,07,29,06,22,19.50
2009,07,29,06,23,19.60
2009,07,29,06,24,19.60
2009,07,29,06,25,19.70
2009,07,29,06,26,19.70
2009,07,29,06,27,19.80
2009,07,29,06,28,19.80
2009,07,29,06,29,19.90
2009,07,29,06,30,19.90
2009,07,29,06,31,19.90
2009,07,29,06,32,20.00
2009,07,29,06,33,20.00
2009,07,29,06,34,20.10
2009,07,29,06,35,20.10
2009,07,29,06,36,20.10
2009,07,29,06,37,20.10
2009,07,29,06,38,20.20
2009,07,29,06,39,20.30
2009,07,29,06,40,20.30
2009,07,29,06,41,20.40
2009,07,29,06,42,20.40
2009,07,29,06,43,20.40
2009,07,29,06,44,20.50
2009,07,29,06,45,20.40
2009,07,29,06,46,20.30
2009,07,29,06,47,20.30
2009,07,29,06,48,20.20
2009,07,29,06,49,20.10
2009,07,29,06,50,20.00
2009,07,29,06,51,20.00
2009,07,29,06,52,19.90
2009,07,29,06,53,19.80
2009,07,29,06,54,19.60
2009,07,29,06,55,19.50
2009,07,29,06,56,19.40
2009,07,29,06,57,19.40
2009,07,29,06,58,19.30
2009,07,29,06,59,19.30
2009,07,29,07,00,19.30
2009,07,29,07,01,19.20
2009,07,29,07,02,19.20
2009,07,29,07,03,19.20
2009,07,29,07,04,19.20
2009,07,29,07,05,19.20
2009,07,29,07,06,19.20
2009,07,29,07,07,19.20
2009,07,29,07,08,19.20
2009,07,29,07,09,19.20
2009,07,29,07,10,19.20
2009,07,29,07,11,19.10
2009,07,29,07,12,18.90
2009,07,29,07,13,18.70
2009,07,29,07,14,18.50
2009,07,29,07,15,18.40
2009,07,29,07,16,18.30
2009,07,29,07,17,18.30
2009,07,29,07,18,18.20
2009,07,29,07,19,18.20
2009,07,29,07,20,18.20
2009,07,29,07,21,18.10
2009,07,29,07,22,18.10
2009,07,29,07,23,18.10
2009,07,29,07,24,18.10
2009,07,29,07,25,18.20
2009,07,29,07,26,18.20
2009,07,29,07,27,18.30
2009,07,29,07,28,18.30
2009,07,29,07,29,18.40
2009,07,29,07,30,18.50
2009,07,29,07,31,18.50
2009,07,29,07,32,18.60
2009,07,29,07,33,18.70
2009,07,29,07,34,18.80
2009,07,29,07,35,18.90
2009,07,29,07,36,18.90
2009,07,29,07,37,19.00
2009,07,29,07,38,19.10
2009,07,29,07,39,19.30
2009,07,29,07,40,19.30
2009,07,29,07,41,19.40
2009,07,29,07,42,19.50
2009,07,29,07,43,19.60
2009,07,29,07,44,19.70
2009,07,29,07,45,19.80
2009,07,29,07,46,19.90
2009,07,29,07,47,19.90
2009,07,29,07,48,20.00
2009,07,29,07,49,20.10
2009,07,29,07,50,20.20
2009,07,29,07,51,20.20
2009,07,29,07,52,20.30
2009,07,29,07,53,20.30
2009,07,29,07,54,20.40
2009,07,29,07,55,20.50
2009,07,29,07,56,20.60
2009,07,29,07,57,20.70
2009,07,29,07,58,20.80
2009,07,29,07,59,20.80
2009,07,29,08,00,20.90
2009,07,29,08,01,21.00
2009,07,29,08,02,21.10
2009,07,29,08,03,21.10
2009,07,29,08,04,21.20
2009,07,29,08,05,21.30
2009,07,29,08,06,21.30
2009,07,29,08,07,21.30
2009,07,29,08,08,21.30
2009,07,29,08,09,21.30
2009,07,29,08,10,21.30
2009,07,29,08,11,21.30
2009,07,29,08,12,21.10
2009,07,29,08,13,21.10
2009,07,29,08,14,21.00
2009,07,29,08,15,20.80
2009,07,29,08,16,20.70
2009,07,29,08,17,20.60
2009,07,29,08,18,20.50
2009,07,29,08,19,20.40
2009,07,29,08,20,20.20
2009,07,29,08,21,20.00
2009,07,29,08,22,19.90
2009,07,29,08,23,19.80
2009,07,29,08,24,19.70
2009,07,29,08,25,19.70
2009,07,29,08,26,19.70
2009,07,29,08,27,19.70
2009,07,29,08,28,19.80
2009,07,29,08,29,19.90
2009,07,29,08,30,20.00
2009,07,29,08,31,20.00
2009,07,29,08,32,20.10
2009,07,29,08,33,20.20
2009,07,29,08,34,20.20
2009,07,29,08,35,20.30
2009,07,29,08,36,20.30
2009,07,29,08,37,20.40
2009,07,29,08,38,20.40
2009,07,29,08,39,20.40
2009,07,29,08,40,20.30
2009,07,29,08,41,20.20
2009,07,29,08,42,20.20
2009,07,29,08,43,20.20
2009,07,29,08,44,20.20
2009,07,29,08,45,20.20
2009,07,29,08,46,20.20
2009,07,29,08,47,20.20
2009,07,29,08,48,20.30
2009,07,29,08,49,20.30
2009,07,29,08,50,20.30
2009,07,29,08,51,20.30
2009,07,29,08,52,20.20
2009,07,29,08,53,20.20
2009,07,29,08,54,20.20
2009,07,29,08,55,20.20
2009,07,29,08,56,20.10
2009,07,29,08,57,20.10
2009,07,29,08,58,20.10
2009,07,29,08,59,20.10
2009,07,29,09,00,20.10
2009,07,29,09,01,20.10
2009,07,29,09,02,20.20
2009,07,29,09,03,20.20
2009,07,29,09,04,20.10
2009,07,29,09,05,20.00
2009,07,29,09,06,20.00
2009,07,29,09,07,19.90
2009,07,29,09,08,19.80
2009,07,29,09,09,19.90
2009,07,29,09,10,19.90
2009,07,29,09,11,19.90
2009,07,29,09,12,20.00
2009,07,29,09,13,20.10
2009,07,29,09,14,20.30
2009,07,29,09,15,20.40
2009,07,29,09,16,20.60
2009,07,29,09,17,20.70
2009,07,29,09,18,20.90
2009,07,29,09,19,21.00
2009,07,29,09,20,21.10
2009,07,29,09,21,21.20
2009,07,29,09,22,21.20
2009,07,29,09,23,21.30
2009,07,29,09,24,21.30
2009,07,29,09,25,21.40
2009,07,29,09,26,21.50
2009,07,29,09,27,21.60
2009,07,29,09,28,21.70
2009,07,29,09,29,21.80
2009,07,29,09,30,22.00
2009,07,29,09,31,22.20
2009,07,29,09,32,22.30
2009,07,29,09,33,22.40
2009,07,29,09,34,22.60
2009,07,29,09,35,22.70
2009,07,29,09,36,22.80
2009,07,29,09,37,22.90
2009,07,29,09,38,22.90
2009,07,29,09,39,22.90
2009,07,29,09,40,22.90
2009,07,29,09,41,22.90
2009,07,29,09,42,22.90
2009,07,29,09,43,22.90
2009,07,29,09,44,23.00
2009,07,29,09,45,23.00
2009,07,29,09,46,23.10
2009,07,29,09,47,23.20
2009,07,29,09,48,23.30
2009,07,29,09,49,23.60
2009,07,29,09,50,23.80
2009,07,29,09,51,23.90
2009,07,29,09,52,24.00
2009,07,29,09,53,24.00
2009,07,29,09,54,23.90
2009,07,29,09,55,23.80
2009,07,29,09,56,23.70
2009,07,29,09,57,23.60
2009,07,29,09,58,23.50
2009,07,29,09,59,23.40
2009,07,29,10,00,23.40
2009,07,29,10,01,23.60
2009,07,29,10,02,23.70
2009,07,29,10,03,23.90
2009,07,29,10,04,24.00
2009,07,29,10,05,24.10
2009,07,29,10,06,24.10
2009,07,29,10,07,24.10
2009,07,29,10,08,24.00
2009,07,29,10,09,24.00
2009,07,29,10,10,24.10
2009,07,29,10,11,24.30
2009,07,29,10,12,24.30
2009,07,29,10,13,24.20
2009,07,29,10,14,24.30
2009,07,29,10,15,24.30
2009,07,29,10,16,24.30
2009,07,29,10,17,24.30
2009,07,29,10,18,24.30
2009,07,29,10,19,24.20
2009,07,29,10,20,24.20
2009,07,29,10,21,24.20
2009,07,29,10,22,24.10
2009,07,29,10,23,24.20
2009,07,29,10,24,24.30
2009,07,29,10,25,24.40
2009,07,29,10,26,24.50
2009,07,29,10,27,24.50
2009,07,29,10,28,24.60
2009,07,29,10,29,24.60
2009,07,29,10,30,24.70
2009,07,29,10,31,24.80
2009,07,29,10,32,24.80
2009,07,29,10,33,24.80
2009,07,29,10,34,24.80
2009,07,29,10,35,24.80
2009,07,29,10,36,24.80
2009,07,29,10,37,24.90
2009,07,29,10,38,24.90
2009,07,29,10,39,24.80
2009,07,29,10,40,24.80
2009,07,29,10,41,24.70
2009,07,29,10,42,24.70
2009,07,29,10,43,24.70
2009,07,29,10,44,24.70
2009,07,29,10,45,24.70
2009,07,29,10,46,24.70
2009,07,29,10,47,24.70
2009,07,29,10,48,24.70
2009,07,29,10,49,24.60
2009,07,29,10,50,24.50
2009,07,29,10,51,24.40
2009,07,29,10,52,24.40
2009,07,29,10,53,24.40
2009,07,29,10,54,24.40
2009,07,29,10,55,24.50
2009,07,29,10,56,24.60
2009,07,29,10,57,24.80
2009,07,29,10,58,25.00
2009,07,29,10,59,25.10
2009,07,29,11,00,25.40
2009,07,29,11,01,25.50
2009,07,29,11,02,25.60
2009,07,29,11,03,25.90
2009,07,29,11,04,26.20
2009,07,29,11,05,26.40
2009,07,29,11,06,26.60
2009,07,29,11,07,26.70
2009,07,29,11,08,26.50
2009,07,29,11,09,26.40
2009,07,29,11,10,26.40
2009,07,29,11,11,26.40
2009,07,29,11,12,26.40
2009,07,29,11,13,26.40
2009,07,29,11,14,26.60
2009,07,29,11,15,26.70
2009,07,29,11,16,26.90
2009,07,29,11,17,27.20
2009,07,29,11,18,27.50
2009,07,29,11,19,27.80
2009,07,29,11,20,28.00
2009,07,29,11,21,28.20
2009,07,29,11,22,28.40
2009,07,29,11,23,28.60
2009,07,29,11,24,28.70
2009,07,29,11,25,28.80
2009,07,29,11,26,29.00
2009,07,29,11,27,29.20
2009,07,29,11,28,29.30
2009,07,29,11,29,29.40
2009,07,29,11,30,29.50
2009,07,29,11,31,29.60
2009,07,29,11,32,29.70
2009,07,29,11,33,29.80
2009,07,29,11,34,29.80
2009,07,29,11,35,29.80
2009,07,29,11,36,29.90
2009,07,29,11,37,30.00
2009,07,29,11,38,30.10
2009,07,29,11,39,30.10
2009,07,29,11,40,30.20
2009,07,29,11,41,30.20
2009,07,29,11,42,30.30
2009,07,29,11,43,30.30
2009,07,29,11,44,30.40
2009,07,29,11,45,30.40
2009,07,29,11,46,30.40
2009,07,29,11,47,30.40
2009,07,29,11,48,30.50
2009,07,29,11,49,30.60
2009,07,29,11,50,30.60
2009,07,29,11,51,30.70
2009,07,29,11,52,30.80
2009,07,29,11,53,30.80
2009,07,29,11,54,30.90
2009,07,29,11,55,30.90
2009,07,29,11,56,30.90
2009,07,29,11,57,31.00
2009,07,29,11,58,31.00
2009,07,29,11,59,30.90
2009,07,29,12,00,30.80
2009,07,29,12,01,30.80
2009,07,29,12,02,30.70
2009,07,29,12,03,30.60
2009,07,29,12,04,30.60
2009,07,29,12,05,30.60
2009,07,29,12,06,30.60
2009,07,29,12,07,30.70
2009,07,29,12,08,30.80
2009,07,29,12,09,30.80
2009,07,29,12,10,30.80
2009,07,29,12,11,30.70
2009,07,29,12,12,30.60
2009,07,29,12,13,30.50
2009,07,29,12,14,30.50
2009,07,29,12,15,30.40
2009,07,29,12,16,30.40
2009,07,29,12,17,30.40
2009,07,29,12,18,30.60
2009,07,29,12,19,30.60
2009,07,29,12,20,30.70
2009,07,29,12,21,30.70
2009,07,29,12,22,30.80
2009,07,29,12,23,30.70
2009,07,29,12,24,30.60
2009,07,29,12,25,30.60
2009,07,29,12,26,30.60
2009,07,29,12,27,30.60
2009,07,29,12,28,30.60
2009,07,29,12,29,30.60
2009,07,29,12,30,30.60
2009,07,29,12,31,30.60
2009,07,29,12,32,30.60
2009,07,29,12,33,30.50
2009,07,29,12,34,30.50
2009,07,29,12,35,30.40
2009,07,29,12,36,30.50
2009,07,29,12,37,30.50
2009,07,29,12,38,30.60
2009,07,29,12,39,30.60
2009,07,29,12,40,30.70
2009,07,29,12,41,30.80
2009,07,29,12,42,30.80
2009,07,29,12,43,30.90
2009,07,29,12,44,30.80
2009,07,29,12,45,30.80
2009,07,29,12,46,30.80
2009,07,29,12,47,30.80
2009,07,29,12,48,30.80
2009,07,29,12,49,30.80
2009,07,29,12,50,31.00
2009,07,29,12,51,31.20
2009,07,29,12,52,31.30
2009,07,29,12,53,31.60
2009,07,29,12,54,31.70
2009,07,29,12,55,31.80
2009,07,29,12,56,32.00
2009,07,29,12,57,32.10
2009,07,29,12,58,32.20
2009,07,29,12,59,32.30
2009,07,29,13,00,32.40
2009,07,29,13,01,32.60
2009,07,29,13,02,32.50
2009,07,29,13,03,32.40
2009,07,29,13,04,32.40
2009,07,29,13,05,32.30
2009,07,29,13,06,32.10
2009,07,29,13,07,31.90
2009,07,29,13,08,31.60
2009,07,29,13,09,31.30
2009,07,29,13,10,31.20
2009,07,29,13,11,31.00
2009,07,29,13,12,30.90
2009,07,29,13,13,30.70
2009,07,29,13,14,30.60
2009,07,29,13,15,30.60
2009,07,29,13,16,30.60
2009,07,29,13,17,30.60
2009,07,29,13,18,30.60
2009,07,29,13,19,30.60
2009,07,29,13,20,30.60
2009,07,29,13,21,30.60
2009,07,29,13,22,30.60
2009,07,29,13,23,30.60
2009,07,29,13,24,30.60
2009,07,29,13,25,30.70
2009,07,29,13,26,30.80
2009,07,29,13,27,30.90
2009,07,29,13,28,31.00
2009,07,29,13,29,31.10
2009,07,29,13,30,31.10
2009,07,29,13,31,31.20
2009,07,29,13,32,31.30
2009,07,29,13,33,31.30
2009,07,29,13,34,31.20
2009,07,29,13,35,31.20
2009,07,29,13,36,31.30
2009,07,29,13,37,31.40
2009,07,29,13,38,31.50
2009,07,29,13,39,31.50
2009,07,29,13,40,31.50
2009,07,29,13,41,31.50
2009,07,29,13,42,31.50
2009,07,29,13,43,31.50
2009,07,29,13,44,31.40
2009,07,29,13,45,31.50
2009,07,29,13,46,31.60
2009,07,29,13,47,31.80
2009,07,29,13,48,31.90
2009,07,29,13,49,32.00
2009,07,29,13,50,32.00
2009,07,29,13,51,32.10
2009,07,29,13,52,32.10
2009,07,29,13,53,32.10
2009,07,29,13,54,32.20
2009,07,29,13,55,32.30
2009,07,29,13,56,32.30
2009,07,29,13,57,32.20
2009,07,29,13,58,31.90
2009,07,29,13,59,31.70
2009,07,29,14,00,31.40
2009,07,29,14,01,31.20
2009,07,29,14,02,31.00
2009,07,29,14,03,30.80
2009,07,29,14,04,30.70
2009,07,29,14,05,30.60
2009,07,29,14,06,30.60
2009,07,29,14,07,30.60
2009,07,29,14,08,30.70
2009,07,29,14,09,30.70
2009,07,29,14,10,30.70
2009,07,29,14,11,30.70
2009,07,29,14,12,30.70
2009,07,29,14,13,30.80
2009,07,29,14,14,30.80
2009,07,29,14,15,30.80
2009,07,29,14,16,30.80
2009,07,29,14,17,30.80
2009,07,29,14,18,30.80
2009,07,29,14,19,30.90
2009,07,29,14,20,30.90
2009,07,29,14,21,30.90
2009,07,29,14,22,30.90
2009,07,29,14,23,30.90
2009,07,29,14,24,30.90
2009,07,29,14,25,31.00
2009,07,29,14,26,31.10
2009,07,29,14,27,31.20
2009,07,29,14,28,31.30
2009,07,29,14,29,31.40
2009,07,29,14,30,31.40
2009,07,29,14,31,31.50
2009,07,29,14,32,31.40
2009,07,29,14,33,31.40
2009,07,29,14,34,31.50
2009,07,29,14,35,31.50
2009,07,29,14,36,31.60
2009,07,29,14,37,31.50
2009,07,29,14,38,31.40
2009,07,29,14,39,31.40
2009,07,29,14,40,31.40
2009,07,29,14,41,31.40
2009,07,29,14,42,31.40
2009,07,29,14,43,31.30
2009,07,29,14,44,31.40
2009,07,29,14,45,31.40
2009,07,29,14,46,31.50
2009,07,29,14,47,31.70
2009,07,29,14,48,31.90
2009,07,29,14,49,32.10
2009,07,29,14,50,32.30
2009,07,29,14,51,32.40
2009,07,29,14,52,32.40
2009,07,29,14,53,32.50
2009,07,29,14,54,32.50
2009,07,29,14,55,32.60
2009,07,29,14,56,32.60
2009,07,29,14,57,32.70
2009,07,29,14,58,32.70
2009,07,29,14,59,32.70
2009,07,29,15,00,32.70
2009,07,29,15,01,32.70
2009,07,29,15,02,32.60
2009,07,29,15,03,32.60
2009,07,29,15,04,32.70
2009,07,29,15,05,32.70
2009,07,29,15,06,32.60
2009,07,29,15,07,32.50
2009,07,29,15,08,32.40
2009,07,29,15,09,32.30
2009,07,29,15,10,32.40
2009,07,29,15,11,32.40
2009,07,29,15,12,32.40
2009,07,29,15,13,32.40
2009,07,29,15,14,32.40
2009,07,29,15,15,32.40
2009,07,29,15,16,32.50
2009,07,29,15,17,32.50
2009,07,29,15,18,32.60
2009,07,29,15,19,32.70
2009,07,29,15,20,32.90
2009,07,29,15,21,33.10
2009,07,29,15,22,33.20
2009,07,29,15,23,33.30
2009,07,29,15,24,33.40
2009,07,29,15,25,33.40
2009,07,29,15,26,33.30
2009,07,29,15,27,33.20
2009,07,29,15,28,33.10
2009,07,29,15,29,32.90
2009,07,29,15,30,32.80
2009,07,29,15,31,32.70
2009,07,29,15,32,32.70
2009,07,29,15,33,32.50
2009,07,29,15,34,32.40
2009,07,29,15,35,32.30
2009,07,29,15,36,32.20
2009,07,29,15,37,32.20
2009,07,29,15,38,32.20
2009,07,29,15,39,32.20
2009,07,29,15,40,32.30
2009,07,29,15,41,32.10
2009,07,29,15,42,31.90
2009,07,29,15,43,31.80
2009,07,29,15,44,31.60
2009,07,29,15,45,31.30
2009,07,29,15,46,31.00
2009,07,29,15,47,30.80
2009,07,29,15,48,30.70
2009,07,29,15,49,30.80
2009,07,29,15,50,30.80
2009,07,29,15,51,30.90
2009,07,29,15,52,31.00
2009,07,29,15,53,31.20
2009,07,29,15,54,31.30
2009,07,29,15,55,31.30
2009,07,29,15,56,31.40
2009,07,29,15,57,31.50
2009,07,29,15,58,31.60
2009,07,29,15,59,31.70
2009,07,29,16,00,31.70
2009,07,29,16,01,31.70
2009,07,29,16,02,31.70
2009,07,29,16,03,31.90
2009,07,29,16,04,32.10
2009,07,29,16,05,32.30
2009,07,29,16,06,32.30
2009,07,29,16,07,32.30
2009,07,29,16,08,32.30
2009,07,29,16,09,32.40
2009,07,29,16,10,32.30
2009,07,29,16,11,32.30
2009,07,29,16,12,32.30
2009,07,29,16,13,32.30
2009,07,29,16,14,32.20
2009,07,29,16,15,32.30
2009,07,29,16,16,32.40
2009,07,29,16,17,32.50
2009,07,29,16,18,32.60
2009,07,29,16,19,32.70
2009,07,29,16,20,32.90
2009,07,29,16,21,33.10
2009,07,29,16,22,33.30
2009,07,29,16,23,33.50
2009,07,29,16,24,33.60
2009,07,29,16,25,33.70
2009,07,29,16,26,33.80
2009,07,29,16,27,33.80
2009,07,29,16,28,33.80
2009,07,29,16,29,33.70
2009,07,29,16,30,33.60
2009,07,29,16,31,33.60
2009,07,29,16,32,33.60
2009,07,29,16,33,33.60
2009,07,29,16,34,33.50
2009,07,29,16,35,33.40
2009,07,29,16,36,33.40
2009,07,29,16,37,33.40
2009,07,29,16,38,33.40
2009,07,29,16,39,33.50
2009,07,29,16,40,33.50
2009,07,29,16,41,33.60
2009,07,29,16,42,33.60
2009,07,29,16,43,33.60
2009,07,29,16,44,33.60
2009,07,29,16,45,33.50
2009,07,29,16,46,33.30
2009,07,29,16,47,33.20
2009,07,29,16,48,33.20
2009,07,29,16,49,33.20
2009,07,29,16,50,33.30
2009,07,29,16,51,33.30
2009,07,29,16,52,33.20
2009,07,29,16,53,33.00
2009,07,29,16,54,32.80
2009,07,29,16,55,32.60
2009,07,29,16,56,32.50
2009,07,29,16,57,32.30
2009,07,29,16,58,32.10
2009,07,29,16,59,31.80
2009,07,29,17,00,31.40
2009,07,29,17,01,31.00
2009,07,29,17,02,30.70
2009,07,29,17,03,30.40
2009,07,29,17,04,30.00
2009,07,29,17,05,29.60
2009,07,29,17,06,29.30
2009,07,29,17,07,29.00
2009,07,29,17,08,28.80
2009,07,29,17,09,28.50
2009,07,29,17,10,28.30
2009,07,29,17,11,28.30
2009,07,29,17,12,28.30
2009,07,29,17,13,28.20
2009,07,29,17,14,28.20
2009,07,29,17,15,28.30
2009,07,29,17,16,28.30
2009,07,29,17,17,28.30
2009,07,29,17,18,28.40
2009,07,29,17,19,28.40